Other Public Products
Issued by NWS Grand Forks, ND

Home | Current Version | Previous Version | Graphics & Text | Print | Product List | Glossary On
Versions: 1 2 3 4 5 6 7 8 9 10 11 12 13 14 15 16 17 18 19 20 21 22 23 24 25 26 27 28 29 30 31 32 33 34 35 36 37 38 39 40 41 42 43 44 45 46 47 48 49 50
000
FPUS83 KFGF 291010
OPUFGF
PRAIRIE TO PINES WEATHER ROUNDUP
NATIONAL WEATHER SERVICE EASTERN NORTH DAKOTA/GRAND FORKS ND
500 AM CDT FRI JUL 29 2016

 **SATELLITE DATA USED TO AUGMENT SKY COVER AT AUTOMATED STATIONS**
 *****  WEATHER ACROSS EASTERN NORTH DAKOTA  *****

CITY           SKY/WX    TMP DP  RH WIND       PRES   REMARKS
GRAND FORKS    CLEAR     52  50  93 NW3       30.09S
GRAND FORKS AF CLEAR     53  52  96 NW3       30.09F
GRAND CITY NWS   N/A     54 N/A N/A MISG        N/A
BUXTON           N/A     57  56  98 NW5         N/A
DEVILS LAKE    CLEAR     56  55  97 CALM      30.12F
FARGO          PTCLDY    59  55  87 N6        30.08S
WAHPETON ARPT  SUNNY     59  55  88 CALM      30.08S
$$

 *****  WEATHER ACROSS CENTRAL AND WESTERN NORTH DAKOTA  *****

CITY           SKY/WX    TMP DP  RH WIND       PRES   REMARKS
JAMESTOWN      MOCLDY    61  59  93 E3        30.10F
BISMARCK       CLOUDY    63  61  93 E3        30.10F
MINOT          CLEAR     56  52  86 CALM      30.10F
MINOT AFB      CLEAR     50  47  90 W2        30.09F
GARRISON         N/A     58  56  93 N3        30.10F
WILLISTON      CLEAR     52  50  93 CALM      30.10F
DICKINSON      CLOUDY    57  56  96 CALM      30.11F
HETTINGER      PTCLDY    56  54  93 CALM      30.14F
$$

 *****  OTHER OBSERVATIONS NORTHEAST NORTH DAKOTA  *****

CITY           SKY/WX    TMP DP  RH WIND       PRES   REMARKS
WALHALLA       NOT AVBL
LANGDON        FAIR      48  48 100 S3        30.12S
CAVALIER       FAIR      52  50  93 W3        30.09F
GRAFTON        FAIR      55  55 100 CALM      30.11S
CANDO          NOT AVBL
FORT TOTTEN      N/A     58  52  79 SE3       29.95S
ROLLA          FAIR      50  50 100 SW5       30.13F
RUGBY          NOT AVBL
 ***** THE ABOVE OBSERVATIONS ARE NON NWS ARE NOT QUALITY
        CONTROLLED AND MAY MIS-REPORT RAIN FOR SNOW...
$$

 *****  OTHER OBSERVATIONS SOUTHEAST NORTH DAKOTA *****

CITY           SKY/WX    TMP DP  RH WIND       PRES   REMARKS
COOPERSTOWN    NOT AVBL
VALLEY CITY    FAIR      59  59 100 NE6       30.12S
OAKES            N/A    N/A N/A N/A MISG        N/A
GWINNER        FAIR      57  55  94 CALM      30.10S
SHEYENNE NWR     N/A     59  55  85 NE3       29.95S
BUFFALO          N/A     58  55  88 CALM        N/A
WYNDMERE       NOT AVBL
 ***** THE ABOVE OBSERVATIONS ARE NON NWS ARE NOT QUALITY
       CONTROLLED AND MAY MIS-REPORT RAIN FOR SNOW...
$$

  *****  WEATHER ACROSS NORTHERN MINNESOTA  *****

CITY           SKY/WX    TMP DP  RH WIND       PRES   REMARKS
FLAG ISLAND    CLEAR     63  57  82 NW5       30.09S
WARROAD        CLEAR     54  48  82 CALM      30.11S
ROSEAU         CLEAR     52  46  82 CALM      30.10F
HALLOCK        CLEAR     52  50  93 CALM      30.09S
THF RVR FALLS  CLEAR     54  53  97 CALM      30.10F
HALSTAD          N/A     52  52  98 N6          N/A
FOSSTON        CLEAR     48  46  93 CALM      30.10S
BAUDETTE       PTCLDY    52  51  97 CALM      30.09S
WASKISH        MOCLDY    55  54  94 CALM      30.09S
CROOKSTON      CLEAR     55  55 100 CALM      30.09F
$$
  *****  WEATHER ACROSS CENTRAL AND WEST MINNESOTA  *****

CITY           SKY/WX    TMP DP  RH WIND       PRES   REMARKS
BEMIDJI        CLEAR     52  50  93 CALM      30.10S
PARK RAPIDS    CLEAR     58  55  90 CALM      30.10S
WADENA         CLEAR     54  52  94 CALM      30.09S FOG
DETROIT LAKES  CLEAR     61  59  94 CALM      30.10S
MOORHEAD       MOCLDY    57  55  94 CALM      30.09S
FERGUS FALLS   CLEAR     61  61 100 CALM      30.09F
ELBOW LAKE     FAIR      62  60  96 SE3       30.08F
MORRIS MN      CLEAR     59  57  94 NE3       30.07S
STAPLES        CLEAR     54  54 100 CALM      30.10S
WHEATON        NOT AVBL
$$
  *****  WEATHER ELSEWHERE ACROSS MINNESOTA  *****

CITY           SKY/WX    TMP DP  RH WIND       PRES   REMARKS
DULUTH         PTCLDY    51  50  96 N3        30.12R
INTRNTL FALLS  CLEAR     49  47  93 S3        30.11R
ELY            PTCLDY    46  46 100 CALM      30.14S
CLOQUET        CLEAR     48  46  93 CALM      30.11S
BRAINERD       MOCLDY    59  57  93 NE3       30.11S
HIBBING        MOCLDY    45  45 100 CALM      30.13R
ALEXANDRIA     CLEAR     57  54  89 E3        30.10S
SAINT CLOUD    CLEAR     55  54  96 N5        30.08S
MINNEAPOLIS    PTCLDY    62  56  80 N7        30.05S
$$

  *****  WEATHER ACROSS SOUTH DAKOTA  *****

CITY           SKY/WX    TMP DP  RH WIND       PRES   REMARKS
SIOUX FALLS    PTCLDY    56  54  93 CALM      30.06F
BROOKINGS      CLEAR     56  53  90 CALM      30.08S
WATERTOWN      CLEAR     61  57  87 N3        30.08F
HURON          CLEAR     57  55  93 CALM      30.08R
SISSETON         N/A     58  57  97 CALM      30.07S
ABERDEEN       CLOUDY    64  60  87 CALM      30.09S
MITCHELL       PTCLDY    59  57  93 W3        30.09R
PIERRE         MOCLDY    63  60  90 SE3       30.07F
MOBRIDGE       CLOUDY    68  59  73 CALM      30.07S
RAPID CITY     FOG       56  56 100 CALM      30.14S VSB 1/4
$$

  *****  SOME WEATHER IN NEARBY STATES *****

CITY           SKY/WX    TMP DP  RH WIND       PRES   REMARKS
GLASGOW MT     CLEAR     58  54  86 SE7       30.06F
GREAT FALLS MT CLEAR     61  53  75 NW13      30.12R
CHEYENNE WY    CLOUDY    58  56  93 SW9       30.25F
SCOTTSBLUFF NE CLEAR     60  57  89 NE6       30.16S
OMAHA NE       CLOUDY    68  64  87 N6        30.00S
DES MOINES IA  CLOUDY    67  63  87 N6        29.96F
DAVENPORT IA   CLOUDY    69  68  96 CALM      29.91F FOG
CHICAGO IL     MOCLDY    70  68  93 N3        29.91S
EAU CLAIRE WI  CLOUDY    62  57  83 N5        30.03S
LA CROSSE WI   CLOUDY    66  60  81 N6        29.99S
$$

  *****  SOME NATIONAL WEATHER *****

CITY           SKY/WX    TMP DP  RH WIND       PRES   REMARKS
LA GUARDIA NY  LGT RAIN  71  69  93 NE12      29.83F FOG
RALEIGH NC     CLEAR     75  70  84 SW8       29.86F
ATLANTA GA     PTCLDY    73  71  93 W6        30.03S
NEW ORLEANS LA PTCLDY    80  74  81 CALM      30.01S
OKLAHOMA CITY  PTCLDY    73  70  90 S5        29.95S
ALBUQUERQUE NM CLEAR     76  48  37 N3        30.17R
SALT LAKE CITY CLEAR     76  44  32 SW5       30.02S
LOS ANGELES CA PTCLDY    70  62  76 NW3       29.83S
BOISE ID       CLEAR     70  48  45 S3        29.96R
SEATTLE WA     CLEAR     70  62  76 NE7       30.03S
$$

*** WEATHER ACROSS MANITOBA...SASKATCHEWAN AND ONTARIO ***
                ***ONTARIO***

CITY           SKY/WX    TMP DP  RH WIND       PRES   REMARKS
GERALDTON      PTCLDY    48  46  93 W5        30.10S
THUNDER BAY    CLEAR     48  48 100 W3        30.12R
SIOUX LOOKOUT  PTCLDY    48  48 100 SE2       30.10S
TORONTO        MOCLDY    68  57  68 N8        29.94R
BIG TROUT LK   MOCLDY    61  54  77 SW7       30.02S
PICKLE LAKE    NOT AVBL
DRYDEN         FOG       55  55 100 NE2       30.11R VSB 1
KENORA         PTCLDY    61  54  77 N3        30.11S
$$
                *** MANITOBA***

CITY           SKY/WX    TMP DP  RH WIND       PRES   REMARKS
BRANDON        PTCLDY    50  48  93 W6        30.09S
DAUPHIN        CLOUDY    59  57  94 W6        30.04F
ISLAND LAKE    MOCLDY    66  61  82 SW5       30.01F
PILOT MOUND      N/A     48  46  93 S6          N/A
THE PAS        PTCLDY    59  59 100 SE2       29.97F
THOMPSON       FOG       57  57 100 E5        30.00F VSB 1/2
WINNIPEG       PTCLDY    55  54  94 S5        30.09S
LYNN LAKE      CLOUDY    61  59  94 MISG      29.97F
CHURCHILL      PTCLDY    48  46  93 NW7       30.07S
GILLAM         PTCLDY    50  50 100 E5        30.06S
$$
                ***SASKATCHEWAN***

CITY           SKY/WX    TMP DP  RH WIND       PRES   REMARKS
ESTEVAN        PTCLDY    54  52  94 SE3       30.10F
KINDERSLEY     LGT RAIN  61  59  94 S6        30.05R
LLOYDMINSTER   PTCLDY    55  55 100 SW6       30.01F
PRINCE ALBERT  CLOUDY    63  61  94 CALM      29.97F
REGINA         PTCLDY    55  50  82 SE8       30.07F
YORKTON        CLEAR     59  54  82 S5        30.06S   C1F1C2F2C3F3C4F4C5F5C6F6C7F7C8F8C9F9CaFaCbFbCcFcCdFdCe!



USA.gov is the U.S. government's official web portal to all federal, state and local government web resources and services.